Theta_e
303 304 304 304 305 305 305 305 306 306 307 309 310 311 312 312 312 312 311 311 311 311 311 311 311 311 312 312 312 312 312 313 313 314 315 316 317 319 320 322 323 324 324 324 324 325 325 325 325 325 325 326 325 325 326 325 326 325 325 325 325 325 324 323 324 325 324 324 324 324 324 324 324 324 324 324 323 322 322 322 322 321 321 320 319
302 303 304 305 306 306 306 306 307 308 309 310 311 311 311 311 311 311 311 311 311 311 311 311 311 311 311 311 311 311 311 311 311 311 311 312 313 315 316 318 320 321 322 323 323 324 324 324 325 325 325 325 325 325 325 325 325 325 325 325 325 324 324 324 324 324 324 324 324 324 324 323 323 324 323 323 324 323 323 322 322 322 321 320 319
299 301 303 304 305 306 306 307 308 308 309 310 310 310 310 310 310 310 310 310 310 310 310 311 311 311 311 311 310 310 310 310 310 310 310 311 311 312 313 315 317 318 320 321 321 322 323 323 323 323 323 324 324 324 325 324 325 325 325 325 325 324 325 324 324 323 324 324 324 324 324 323 323 323 323 324 324 323 323 323 322 322 321 321 320
297 299 300 302 303 304 304 304 305 306 307 308 309 309 310 310 309 309 309 309 309 309 310 310 311 311 311 311 311 310 310 310 310 310 309 310 310 311 312 312 313 315 316 317 318 319 320 321 321 322 322 323 323 323 323 324 324 324 324 324 325 325 324 324 324 324 323 323 324 324 324 323 323 323 323 323 323 323 322 322 322 322 321 321 320
295 296 298 299 301 302 302 302 302 303 303 304 306 307 308 309 309 309 308 309 309 309 310 310 310 310 310 310 310 310 310 309 309 309 309 309 309 309 310 310 311 312 312 313 314 315 317 317 318 319 320 321 321 322 322 322 323 323 324 324 324 324 324 324 324 324 323 323 323 323 323 323 323 323 323 322 322 322 322 322 322 321 321 321 321
292 294 295 296 297 298 299 299 299 300 300 301 302 303 305 307 308 308 308 308 308 309 309 309 309 310 310 310 310 310 310 309 309 309 309 308 308 308 308 309 309 309 309 310 311 312 313 314 315 316 318 319 319 320 320 321 322 322 322 323 323 323 323 323 323 323 323 323 323 323 323 323 322 322 322 322 322 321 321 321 321 321 320 320 320
289 291 292 292 294 295 296 296 296 297 298 299 300 300 301 303 304 306 307 307 308 308 308 309 309 309 309 309 309 309 309 309 308 308 308 307 307 307 307 307 307 307 307 307 308 309 310 312 313 314 316 317 318 319 319 320 321 321 321 322 322 323 323 323 323 323 322 322 322 322 322 322 322 321 321 321 321 320 320 319 319 319 319 319 320
288 289 289 290 291 292 293 294 295 296 296 297 298 298 299 300 301 302 304 305 306 306 307 307 308 308 308 308 308 308 307 307 307 307 307 307 306 306 305 305 305 305 306 306 306 307 307 309 310 311 313 314 315 316 317 318 319 319 320 321 321 322 322 322 322 322 322 321 321 321 321 322 321 321 320 319 317 317 319 318 318 318 319 319 320
286 287 287 287 288 289 291 293 294 295 295 296 296 297 297 298 298 299 300 301 303 304 304 305 305 306 306 306 306 306 305 305 305 305 305 305 305 305 304 304 304 304 304 305 305 305 305 306 307 308 309 310 311 313 314 315 317 317 318 319 320 321 321 321 321 321 321 321 321 321 321 321 321 320 318 316 316 317 318 318 317 318 318 318 318
286 286 285 285 286 286 288 290 291 293 293 293 294 294 295 296 296 297 298 298 299 301 301 302 302 303 304 304 304 304 303 302 303 302 302 303 303 303 303 303 303 303 303 303 304 304 304 304 305 305 306 307 308 309 310 312 313 315 315 316 317 318 319 320 320 320 320 320 320 320 320 320 320 320 319 318 318 318 318 316 315 316 316 315 316
285 285 284 285 285 285 285 286 288 289 290 291 291 292 293 294 295 295 296 296 297 298 299 299 300 301 301 302 303 302 301 301 301 301 301 301 301 301 302 302 302 302 302 302 302 303 303 304 304 304 304 304 305 306 307 309 310 312 312 313 314 315 317 318 318 319 319 319 320 320 320 319 320 320 320 320 319 318 317 316 315 315 314 314 315
284 284 284 284 284 284 284 285 285 286 287 288 289 290 291 292 293 294 294 294 295 295 296 297 297 298 299 300 301 300 299 299 299 299 299 299 300 300 300 300 300 300 300 300 301 301 302 302 303 303 303 303 304 304 305 306 307 308 309 310 311 312 314 315 316 316 316 317 318 318 319 319 320 320 320 320 319 318 317 316 315 314 313 312 314
283 283 283 283 283 283 284 284 285 285 285 286 287 288 288 289 291 292 292 292 293 293 294 294 295 296 296 298 299 299 298 297 297 297 297 297 297 297 298 298 298 299 299 299 300 300 300 300 301 302 302 302 302 303 303 304 304 305 306 307 308 309 310 312 313 314 314 315 315 316 317 317 318 319 320 320 319 318 316 315 314 314 313 313 313
282 282 282 282 282 283 283 284 285 285 285 286 286 287 287 287 288 290 291 291 291 292 292 292 293 294 294 295 297 297 296 296 296 296 296 296 295 295 296 297 297 298 298 298 299 299 299 299 299 300 301 301 301 301 302 302 302 302 303 304 305 306 307 308 310 312 313 314 314 314 315 316 316 317 318 318 319 318 316 315 314 313 314 315 316
281 281 281 281 281 282 283 283 283 284 285 285 286 286 287 287 287 288 289 289 289 290 290 291 291 292 292 293 294 294 294 294 295 294 294 295 294 294 294 295 296 297 297 297 298 298 298 298 298 298 299 299 299 300 300 300 300 301 301 301 302 302 303 304 306 309 311 313 313 313 313 314 315 316 316 317 317 317 317 317 316 316 315 314 315
280 280 280 279 280 280 281 281 282 283 284 285 285 286 287 287 287 288 288 288 288 288 288 288 289 290 290 290 290 290 291 292 292 292 292 293 293 293 294 294 295 296 296 296 296 296 296 295 296 297 297 297 298 298 298 299 299 299 299 299 300 300 300 300 302 304 306 308 310 312 312 313 313 313 314 315 315 316 317 316 316 316 314 312 310
279 279 278 278 278 279 279 280 281 282 283 284 285 286 287 287 287 287 287 287 287 287 287 286 287 287 287 287 287 287 288 290 290 290 290 291 292 292 293 294 294 295 295 294 293 293 294 294 295 295 296 296 297 297 298 298 298 299 299 299 299 299 299 299 300 301 302 304 306 308 310 312 312 313 313 314 315 316 315 314 314 313 311 310 311
278 277 276 276 277 278 278 279 280 281 282 283 285 285 286 287 286 287 287 286 286 286 286 285 285 285 285 285 285 285 286 288 288 288 288 289 289 290 291 291 292 292 292 292 292 292 293 293 294 294 295 296 296 297 298 298 298 299 299 299 299 300 299 299 300 301 302 302 304 305 306 308 309 311 313 313 314 315 313 312 313 312 309 309 311
276 275 275 275 276 277 278 278 279 281 282 283 284 285 286 286 286 286 286 285 285 285 285 284 284 284 284 284 284 285 285 286 286 287 287 288 288 288 288 289 289 290 290 290 290 290 291 291 292 293 293 294 294 295 296 296 297 297 298 298 299 299 299 300 300 301 301 301 302 303 304 305 306 308 310 310 312 313 312 312 312 312 310 308 309
274 274 274 274 275 277 278 278 279 280 282 282 283 284 284 285 285 285 285 284 284 284 284 284 284 284 284 285 285 285 285 285 285 286 287 287 288 288 287 288 288 288 288 289 288 289 289 289 290 290 290 291 291 291 292 293 293 294 295 296 297 298 298 298 298 299 299 299 300 300 301 302 303 305 307 308 309 311 312 311 311 311 310 309 307
272 272 272 273 274 276 277 278 278 280 280 281 282 282 283 284 285 284 284 284 284 284 284 284 284 284 285 285 285 285 285 285 285 286 286 286 287 287 287 288 288 288 288 288 288 288 288 288 288 289 289 289 290 290 290 291 291 292 293 293 294 295 295 296 296 297 297 298 298 299 299 300 301 302 304 306 308 309 310 310 310 310 310 310 308
271 270 270 272 273 274 274 276 277 279 279 280 281 281 281 282 283 284 284 284 284 284 284 284 285 285 285 285 285 285 285 285 285 285 285 286 286 287 287 287 288 288 287 287 288 288 287 287 288 288 288 289 289 290 290 291 291 292 292 292 293 293 294 294 295 295 296 296 297 297 298 299 300 301 302 304 305 306 308 308 309 310 310 310 310
270 269 269 270 271 272 273 274 276 277 278 278 279 279 280 281 282 282 283 284 284 284 284 284 284 284 285 285 285 285 285 285 285 285 285 285 285 286 286 287 287 287 286 287 286 286 286 286 287 287 288 288 289 289 290 290 291 291 291 292 292 293 293 293 293 294 294 295 296 297 298 298 299 300 301 302 303 304 306 307 307 307 307 308 309
269 269 269 269 270 271 272 273 274 275 276 277 277 278 279 280 280 281 282 283 283 283 283 283 284 284 284 284 284 285 284 284 284 284 284 284 284 284 285 285 286 286 286 286 285 285 286 286 287 287 287 288 288 289 289 290 290 290 291 291 292 292 292 292 293 293 294 294 295 296 297 298 299 299 300 301 302 302 303 304 304 304 305 305 306
268 268 268 269 269 270 271 272 273 274 274 275 276 277 278 278 279 280 281 282 283 283 283 283 283 283 283 283 283 283 284 283 283 283 282 282 283 283 283 284 284 285 285 285 285 285 286 286 287 287 287 288 288 288 288 289 289 290 290 291 291 291 291 291 292 292 293 294 295 296 297 297 298 299 299 300 300 300 300 301 301 301 301 301 300
267 267 268 268 269 270 271 272 273 273 273 274 274 275 276 276 277 278 280 281 282 282 282 282 282 282 282 282 282 282 282 283 282 282 282 282 281 282 282 283 283 284 285 285 285 285 286 286 287 287 287 287 287 287 288 288 289 289 289 290 290 290 290 290 290 291 291 292 293 293 294 295 295 296 297 298 298 298 298 298 297 296 296 296 295
266 267 267 267 268 269 270 271 272 272 272 273 273 273 274 274 275 277 278 279 280 280 281 281 282 281 281 281 281 281 281 281 281 281 281 281 280 280 281 281 282 284 284 285 284 284 285 286 286 286 286 286 287 287 287 287 288 288 288 288 289 289 289 289 289 290 290 290 291 291 292 292 293 294 295 295 295 295 295 294 294 293 292 293 292
266 266 266 267 268 269 270 270 271 271 272 272 272 272 272 273 274 275 276 277 279 279 280 280 280 280 280 280 280 280 280 280 280 280 280 280 280 280 280 281 282 283 284 284 283 284 285 285 285 285 285 285 285 286 286 286 286 287 287 287 288 288 288 288 288 289 289 289 289 290 290 291 291 291 292 292 292 292 292 291 291 291 290 290 290
265 265 265 266 267 268 269 269 270 270 271 271 271 271 272 272 273 274 275 276 277 279 279 279 278 278 278 278 278 278 278 279 279 279 279 279 279 279 280 280 282 282 282 282 283 284 284 283 283 283 283 283 284 284 285 285 285 285 286 286 286 286 286 287 287 287 288 288 288 288 289 289 289 289 290 290 289 289 289 289 289 289 289 289 288
264 264 265 266 266 267 268 268 269 269 270 270 271 271 271 272 273 273 274 275 276 278 278 277 277 276 277 277 277 277 277 278 278 278 278 278 278 278 279 280 281 281 281 282 282 282 281 280 281 281 281 281 282 282 283 283 284 284 284 284 284 284 285 285 285 286 286 287 287 288 288 288 288 288 288 288 288 288 288 288 288 288 288 288 287
263 264 264 265 265 266 267 267 268 269 269 269 270 270 271 271 272 272 273 274 276 277 277 276 275 275 275 276 275 275 276 277 277 277 277 276 277 277 278 279 279 279 279 281 280 278 277 278 278 278 278 278 279 279 280 281 281 282 282 282 283 283 283 283 284 285 286 286 286 286 287 287 287 287 287 287 287 287 287 287 287 287 287 286 284
263 263 264 264 265 266 266 267 267 268 269 269 269 270 270 271 271 271 272 273 275 276 276 274 274 273 274 274 274 274 275 275 276 276 275 275 275 276 277 277 277 277 279 279 277 274 274 275 275 275 275 275 276 276 277 278 278 279 280 280 281 281 281 282 283 284 284 284 284 284 285 285 286 286 286 286 286 286 286 286 285 285 284 283 282
263 263 263 264 264 265 265 266 266 267 268 268 268 269 269 270 270 270 271 272 273 274 274 273 272 272 272 272 273 273 274 274 274 274 274 273 274 275 275 275 275 276 277 275 272 271 272 272 272 272 272 273 273 274 274 275 276 276 277 278 278 279 280 281 282 283 283 283 283 283 283 283 284 284 284 285 285 285 285 284 284 283 282 280 279
263 263 263 263 264 264 264 265 266 266 267 267 268 268 268 269 269 270 271 272 272 273 273 272 271 270 271 271 271 271 272 273 273 273 272 272 272 273 275 275 275 274 274 271 269 270 270 270 270 270 270 271 271 272 272 273 274 274 275 276 276 277 279 280 281 281 281 282 282 282 282 282 282 282 282 282 282 282 282 282 282 281 280 279 277
263 262 263 263 263 263 264 264 265 266 266 267 267 267 267 268 268 269 270 271 271 271 271 270 269 269 269 269 269 269 270 271 271 271 270 270 270 272 274 273 271 271 270 269 268 269 269 269 269 269 269 269 270 270 270 271 272 273 273 274 275 276 277 278 279 279 280 280 280 280 280 281 281 280 280 279 279 279 279 279 279 279 278 277 277
262 262 262 262 262 262 263 264 264 265 266 266 267 266 266 267 267 268 269 269 270 270 270 269 268 268 267 267 267 268 268 269 269 269 268 267 268 269 269 267 266 266 266 266 267 267 267 267 267 267 267 268 268 269 269 270 271 272 273 273 273 274 274 275 276 276 278 278 278 278 279 279 279 279 279 278 277 277 277 277 277 277 277 276 276
262 262 262 262 262 262 263 263 264 265 266 266 265 265 265 266 266 267 267 268 268 269 269 268 267 267 266 266 266 266 266 267 267 267 266 266 266 265 265 264 264 265 265 264 265 266 266 266 266 266 266 267 267 268 268 269 270 272 273 273 273 273 273 273 274 274 275 275 275 276 277 277 277 277 278 277 276 275 276 276 276 276 276 276 276
261 261 261 262 262 262 263 263 264 264 265 265 264 264 265 265 265 266 266 266 266 267 267 267 266 266 265 265 265 265 265 266 266 265 265 265 264 263 263 263 263 263 263 263 264 264 264 265 265 265 265 265 266 267 267 268 269 270 271 272 272 273 273 273 274 274 274 273 273 274 274 274 274 275 275 275 274 274 275 275 275 275 275 275 275
261 261 261 261 262 262 262 262 263 264 264 263 263 264 264 264 265 265 265 264 265 265 266 265 265 265 264 264 264 265 265 264 264 264 263 263 263 262 262 262 262 262 262 262 262 263 263 263 264 264 264 265 265 266 267 268 269 269 269 270 271 271 271 272 272 272 272 272 272 272 273 273 273 273 273 273 273 273 273 273 273 273 273 273 273
260 260 260 261 261 261 262 262 262 263 262 262 262 263 263 264 264 264 263 263 264 264 264 264 264 263 263 263 264 264 264 263 263 263 263 262 262 262 262 262 262 262 262 262 262 262 263 263 263 263 264 264 264 265 266 267 268 268 268 268 269 269 269 269 270 270 270 270 270 271 271 271 272 272 272 272 272 272 272 272 272 272 272 272 272
260 260 260 260 260 261 261 261 262 262 261 261 262 262 262 263 263 263 263 263 263 263 263 263 263 262 262 263 263 263 263 262 262 263 262 262 262 262 261 261 261 261 261 261 262 262 262 263 263 263 263 264 264 265 266 266 267 267 267 267 268 268 268 268 268 269 269 269 269 270 270 270 270 271 271 271 271 271 271 271 271 271 271 271 271
260 259 259 260 260 260 260 260 261 261 261 261 261 261 262 262 262 262 262 262 263 263 263 262 262 262 262 262 262 262 262 262 262 262 262 262 261 261 261 261 261 261 261 261 261 262 262 262 263 263 263 263 264 264 265 265 266 266 266 267 267 267 267 267 267 268 268 268 268 269 269 269 269 269 270 270 270 270 270 270 270 270 270 270 270
259 259 259 259 259 259 259 260 260 260 260 261 261 261 262 262 262 261 261 261 262 262 262 261 261 261 262 262 262 261 261 261 261 261 261 261 261 261 261 261 261 261 261 262 262 262 262 262 263 263 263 264 264 264 264 264 265 265 266 266 266 266 266 267 267 267 267 268 268 268 268 268 269 269 269 269 269 269 269 269 269 269 270 270 270
259 259 259 258 259 259 259 259 259 260 260 260 260 261 261 261 261 261 261 261 261 261 261 261 260 260 261 262 261 261 261 261 260 260 261 261 260 261 261 261 261 261 262 262 262 262 262 262 263 263 263 264 264 264 265 265 265 265 265 265 266 266 266 266 266 266 267 267 267 267 268 268 268 268 268 268 269 269 269 269 269 269 269 269 269
259 258 258 258 258 258 259 259 259 259 259 260 260 260 260 260 260 260 260 260 260 260 260 260 260 260 260 261 261 260 260 260 260 260 260 261 261 261 261 261 261 261 262 262 262 262 262 262 262 263 263 263 264 264 265 265 265 265 265 265 265 266 266 266 266 266 266 266 267 267 267 267 267 267 268 268 268 268 268 268 268 269 269 269 269
258 258 258 258 257 258 258 258 259 259 259 259 259 259 260 260 260 260 260 260 260 260 260 260 260 260 260 260 260 260 260 260 260 260 260 261 261 261 261 261 261 262 262 262 262 262 262 262 262 262 263 263 264 264 265 265 265 265 265 265 266 266 266 266 265 265 265 266 266 266 266 267 267 267 267 267 267 268 268 268 268 268 268 268 269
258 257 257 257 257 257 258 258 258 258 258 258 258 259 259 259 259 259 259 259 259 259 259 260 260 260 260 260 260 260 260 260 260 260 260 260 261 261 261 261 261 262 262 262 262 262 262 262 262 263 263 263 264 264 264 265 265 265 265 265 265 265 265 265 265 265 265 265 265 265 266 266 266 266 267 267 267 267 267 268 268 268 268 268 268
257 257 257 257 257 257 257 257 257 257 257 258 258 258 258 258 259 259 259 259 259 259 259 259 259 259 259 259 259 259 259 260 260 259 260 260 260 260 261 261 261 261 262 262 262 262 262 262 262 262 263 263 264 264 264 265 265 265 265 265 265 265 265 265 265 265 265 265 265 265 265 265 266 266 266 267 267 267 267 267 267 268 268 268 268
256 256 256 256 256 256 257 257 257 257 257 257 257 257 258 258 258 258 258 258 258 258 258 259 259 259 259 259 259 259 259 259 259 259 259 260 260 260 261 261 261 261 261 261 262 262 262 262 262 262 263 263 264 264 264 264 265 265 265 264 264 265 265 264 264 264 265 265 265 265 265 265 265 266 266 267 267 267 267 267 267 268 268 268 268
256 256 256 256 256 256 256 257 257 257 257 257 257 257 257 257 257 257 257 258 258 258 258 258 258 258 258 258 258 258 258 258 258 258 259 259 259 260 260 260 261 261 261 261 261 261 261 262 262 262 263 263 263 263 264 264 264 264 264 264 264 264 264 264 264 264 265 264 264 264 265 265 266 266 266 267 267 267 267 267 267 267 267 268 268
256 256 256 256 256 256 256 256 256 256 257 256 256 256 256 256 256 257 257 257 257 257 258 258 258 258 258 258 258 258 258 258 258 258 258 259 259 259 259 260 260 260 260 261 261 261 261 261 261 262 262 262 263 263 263 263 263 264 264 263 263 263 264 264 264 264 264 264 264 265 265 265 266 266 266 266 267 267 267 267 267 267 267 267 267
Wind_Speed
38 37 35 34 33 31 27 25 23 21 18 16 15 13 11 10 10 10 10 10 10 10 10 11 11 12 13 13 13 13 13 13 13 15 17 19 21 23 24 25 27 28 29 30 30 29 30 30 31 32 30 30 31 30 30 31 31 31 32 32 31 31 30 22 13 16 27 30 29 29 27 27 30 33 33 34 33 30 30 30 29 28 26 26 27
40 39 36 34 33 30 27 24 21 18 15 13 11 11 10 10 10 11 11 11 12 12 12 12 12 12 12 12 12 12 12 12 12 13 15 17 18 20 21 22 25 26 26 27 28 27 28 29 30 30 28 29 30 29 29 30 29 30 31 30 31 32 30 27 20 14 20 28 29 28 27 26 29 32 32 34 35 34 33 33 31 30 29 26 27
40 39 37 35 32 29 26 23 19 16 13 10 8 7 7 8 10 11 12 13 14 14 14 14 14 13 12 12 12 12 12 13 13 14 15 17 18 19 20 21 23 25 25 26 27 26 26 27 29 28 27 27 29 28 28 29 28 29 31 30 30 32 31 30 26 18 16 24 29 27 25 25 29 31 32 35 36 35 34 34 32 31 30 26 26
39 39 37 36 33 30 28 26 23 21 18 16 12 9 8 8 9 10 12 13 14 15 15 16 16 16 15 14 13 14 14 14 15 15 15 16 17 18 19 20 22 24 25 26 27 26 26 27 28 27 26 27 29 28 27 28 28 27 29 29 29 31 32 31 31 28 21 22 28 29 26 27 30 32 32 33 34 34 34 33 32 32 31 29 28
39 38 36 36 34 33 31 30 29 27 25 23 20 16 13 10 10 11 12 13 14 15 16 16 17 17 17 17 17 17 16 16 16 17 16 16 17 18 19 20 21 23 24 26 26 27 27 28 29 27 25 27 29 29 28 28 28 28 28 30 29 30 32 31 31 32 27 24 29 31 28 26 28 30 30 30 30 32 33 33 34 33 32 31 30
37 35 34 35 34 34 34 34 33 32 30 27 24 22 19 15 13 12 12 13 14 15 16 16 17 18 18 18 18 19 18 18 17 18 18 17 18 19 19 21 22 23 24 25 26 26 27 28 29 28 26 28 29 29 28 27 28 28 28 30 30 29 31 31 29 29 29 28 30 32 29 26 26 27 28 28 29 30 30 32 34 35 33 33 33
35 33 32 33 34 35 36 35 35 33 32 30 27 25 23 21 18 15 14 14 14 15 16 17 17 18 19 19 19 20 20 19 18 18 19 18 18 19 20 21 22 23 24 25 25 26 26 27 28 27 27 28 29 30 29 27 27 28 29 29 29 28 28 29 29 28 27 27 27 28 28 26 25 27 28 28 28 30 29 25 25 29 31 32 34
34 33 32 33 33 34 35 35 35 34 33 31 28 27 25 24 22 19 17 15 15 15 16 17 19 19 20 21 21 22 22 21 20 19 19 19 19 20 21 22 23 25 25 26 26 26 27 27 27 27 27 28 29 30 29 27 27 28 29 28 27 27 28 27 27 25 25 24 24 26 27 26 26 26 24 21 20 24 28 25 23 27 28 29 33
32 32 33 33 32 33 34 34 34 34 33 32 29 28 27 26 24 22 20 18 16 16 16 17 19 20 21 22 22 23 23 22 21 20 19 20 20 21 22 23 24 26 26 27 27 26 26 27 27 27 27 28 29 30 29 29 28 29 31 29 26 27 26 26 26 25 23 21 21 24 22 20 23 22 18 19 20 23 27 27 27 30 27 27 33
33 32 32 32 32 33 33 33 33 33 32 31 30 29 28 28 27 25 24 22 20 18 17 17 17 19 20 22 22 22 21 20 20 19 18 18 19 20 22 23 23 24 26 27 28 28 27 26 27 27 27 28 29 30 30 31 30 31 33 32 30 28 27 26 25 24 22 17 18 20 14 13 22 24 21 24 28 27 27 25 25 28 23 20 26
33 33 33 32 32 32 32 32 32 31 31 31 30 30 29 29 28 28 27 27 25 23 21 19 18 18 19 21 22 22 21 20 19 19 17 16 17 18 20 22 22 22 24 26 28 29 28 27 28 28 28 29 29 29 29 29 29 30 31 32 32 31 31 30 28 25 22 18 19 21 15 14 26 30 25 27 27 27 29 27 25 23 18 12 13
29 31 31 31 31 32 32 31 30 30 30 31 30 30 30 29 29 29 30 30 29 28 26 24 22 20 20 21 22 22 21 20 19 18 17 15 15 16 18 20 21 22 24 25 27 28 28 29 29 29 29 28 27 27 27 28 28 29 29 31 32 32 34 35 34 31 27 21 19 21 20 20 25 29 27 26 25 26 28 27 26 24 19 13 10
28 28 28 29 30 31 31 31 30 30 29 29 29 29 28 28 28 29 30 31 31 31 30 29 27 24 22 22 23 23 22 21 20 18 17 16 15 15 17 19 21 23 24 24 26 27 28 29 29 30 30 28 27 26 25 26 28 27 27 28 30 31 32 34 36 37 36 31 25 26 31 29 26 30 32 27 25 27 26 24 26 26 22 20 21
28 28 27 27 29 29 29 30 31 31 29 28 28 27 26 27 27 28 29 30 31 32 32 32 30 28 25 24 24 24 22 21 20 18 17 18 17 16 18 19 21 23 24 24 25 26 27 27 28 30 31 29 26 24 23 24 26 26 26 28 29 31 31 32 35 36 38 38 34 35 41 40 34 36 38 31 26 27 25 24 25 26 27 30 34
27 26 26 27 29 29 29 30 31 30 29 28 27 26 25 25 26 27 28 28 29 30 31 31 30 29 26 24 24 23 21 20 18 17 17 18 18 18 18 20 21 22 24 23 23 25 25 25 25 28 30 30 26 21 21 23 24 26 28 29 30 32 33 34 35 33 33 37 39 42 46 46 42 41 43 39 34 32 32 30 29 30 32 32 33
26 25 25 27 32 32 31 31 31 30 29 28 27 25 25 25 26 27 28 28 28 28 28 27 27 26 25 23 22 21 19 17 15 16 16 17 18 18 19 20 22 23 24 24 22 23 23 22 23 25 27 28 25 21 21 23 25 27 28 29 31 32 36 39 35 30 31 34 38 41 44 46 46 45 46 44 41 40 38 33 33 32 25 17 17
24 24 25 28 33 35 33 31 31 30 29 29 27 25 24 25 26 26 27 28 28 26 25 23 22 21 21 20 20 19 17 15 14 15 16 16 17 18 19 20 22 24 25 24 22 21 20 18 19 22 25 26 25 23 22 23 25 27 27 28 30 32 38 41 33 28 29 32 35 38 40 45 48 48 49 48 46 46 39 30 31 30 18 9 10
23 25 29 32 34 34 33 30 29 29 29 27 26 25 25 24 25 25 24 25 27 26 24 22 19 17 18 19 18 17 15 15 15 15 15 15 15 16 17 18 20 22 24 24 22 20 20 19 18 19 22 25 24 23 22 23 25 26 26 26 27 31 38 40 32 29 29 28 29 32 35 39 43 46 49 49 49 49 40 32 34 29 14 10 12
24 28 31 32 32 33 32 29 27 27 25 24 24 25 25 23 23 23 21 21 23 24 22 21 20 19 18 19 18 16 15 17 17 16 15 15 15 16 17 16 17 19 21 24 24 22 20 19 17 17 20 23 24 23 22 22 24 25 25 25 24 29 36 36 31 31 31 29 29 31 32 35 38 40 44 46 46 47 44 41 41 32 20 16 16
29 33 33 31 31 32 31 27 24 23 23 23 24 23 23 22 21 21 20 19 20 20 19 19 21 20 19 18 17 17 17 19 18 16 16 16 15 16 17 16 17 20 21 23 26 26 23 22 21 20 21 22 24 24 23 23 24 25 27 26 25 28 34 35 34 35 35 34 35 35 34 36 37 37 39 41 42 44 45 44 42 35 27 22 19
33 35 34 33 33 31 28 24 23 23 22 22 23 22 21 21 20 20 19 19 18 18 18 18 18 18 16 15 15 16 17 19 19 17 17 17 16 16 16 16 17 20 22 22 23 24 25 26 26 24 23 24 25 25 24 23 23 25 27 29 30 32 35 37 38 39 36 35 35 35 34 35 36 35 36 37 39 40 40 40 40 39 34 28 23
33 32 32 35 33 29 26 23 23 23 23 22 22 23 21 20 19 19 19 19 18 18 17 16 16 16 14 13 13 14 15 16 17 17 17 17 17 16 16 16 16 18 20 20 20 21 23 25 25 24 24 25 25 25 24 23 22 24 26 28 30 32 33 35 37 37 34 32 31 31 32 32 31 32 33 34 35 36 36 37 41 42 41 40 37
33 32 33 33 29 27 26 24 23 22 22 22 22 22 21 20 19 18 18 19 18 16 15 15 15 15 13 12 12 13 15 16 17 17 17 18 17 17 16 16 16 17 18 19 19 21 22 23 23 24 24 24 24 23 22 21 22 23 23 24 26 27 29 30 31 31 31 30 28 27 28 29 28 29 30 32 34 35 37 39 42 42 41 42 43
31 33 34 30 26 25 24 23 23 23 22 22 21 21 20 20 18 17 17 17 16 15 15 14 14 13 12 11 11 12 15 17 17 18 18 18 19 18 18 18 17 17 18 19 20 21 22 22 23 24 24 23 22 21 21 20 21 22 22 23 24 25 25 25 25 25 25 24 23 23 25 27 28 28 30 33 34 33 34 35 36 36 35 36 38
31 32 33 30 27 26 24 22 22 22 22 21 20 19 20 19 18 16 15 14 14 14 13 13 12 12 12 11 12 12 14 15 17 19 20 20 20 20 20 19 19 19 19 20 21 22 23 24 25 24 23 21 21 21 21 20 20 20 21 22 22 22 22 21 21 20 20 19 20 21 23 26 27 28 29 31 31 29 29 29 29 29 30 29 30
29 27 28 29 29 26 24 21 21 21 21 20 18 18 18 18 18 17 14 13 13 13 13 13 12 12 12 12 12 12 13 14 15 18 21 22 23 23 23 22 21 21 21 21 22 24 25 25 25 23 22 20 19 20 20 20 20 20 20 20 20 20 20 19 18 17 17 18 19 20 22 26 27 27 27 26 26 26 25 24 23 22 22 20 17
24 23 26 28 27 24 22 21 21 21 21 20 19 18 18 17 17 16 15 14 14 14 15 14 12 11 11 12 12 12 13 14 15 19 22 23 25 26 26 25 24 23 23 24 25 26 27 25 23 21 19 18 18 17 18 18 18 19 18 19 19 19 19 19 18 17 17 18 20 21 24 26 27 26 24 22 21 21 20 19 17 16 15 14 11
22 24 27 25 23 22 21 20 20 20 21 21 20 20 20 19 18 17 16 15 15 17 17 14 12 12 12 12 13 13 13 14 17 20 23 24 25 26 26 25 25 24 24 25 27 27 25 22 19 18 18 18 18 18 18 18 18 18 18 18 18 18 18 18 17 17 17 18 19 21 22 23 22 20 18 16 14 13 12 13 13 12 12 11 9
22 25 26 21 20 21 21 20 20 20 21 21 21 21 20 19 19 20 20 17 15 18 18 14 14 16 15 13 13 14 14 15 18 21 22 23 24 24 24 23 22 21 21 23 23 21 18 15 15 16 16 17 17 17 17 17 17 18 18 17 17 17 17 16 16 17 17 17 17 17 18 18 18 16 13 10 7 6 6 8 9 10 11 10 8
21 23 22 20 20 21 21 21 21 21 20 21 22 24 23 19 17 18 20 18 16 16 15 15 17 18 17 14 14 14 15 17 19 20 21 22 22 23 22 20 18 18 19 18 15 12 11 11 12 13 13 14 14 14 15 15 15 16 18 17 16 16 16 15 15 16 17 15 14 14 14 13 13 12 9 5 2 1 3 5 8 9 9 9 8
21 21 20 20 21 21 21 22 22 21 20 20 21 22 24 24 20 17 15 16 16 14 12 14 18 18 17 16 16 15 16 18 19 18 20 21 22 22 20 16 15 16 16 12 9 10 11 10 10 12 12 12 12 12 13 14 13 15 17 17 16 16 16 16 16 15 14 14 13 13 12 11 9 8 6 4 4 5 6 7 8 9 10 10 9
21 21 21 21 21 20 20 21 21 20 20 21 20 19 21 23 24 23 19 15 13 12 12 15 18 19 17 17 18 18 18 19 19 18 19 19 20 21 18 14 14 16 14 10 10 12 11 9 10 12 13 12 13 14 14 14 14 14 15 15 16 17 17 15 14 13 13 13 14 14 14 13 10 8 6 5 6 7 9 10 12 13 14 16 15
23 23 22 21 21 20 20 19 19 19 19 20 19 19 19 18 21 24 25 20 14 10 10 14 20 22 19 17 18 20 20 20 19 19 19 19 20 20 16 11 11 14 15 14 13 11 11 10 11 12 13 13 14 14 14 14 14 15 15 15 15 16 16 14 13 13 13 13 14 15 15 14 13 11 9 7 7 8 9 10 12 14 15 14 14
22 22 21 20 20 20 19 18 18 19 19 19 19 19 19 18 18 20 22 22 19 15 13 15 20 23 22 20 20 21 22 21 20 19 19 20 19 18 14 10 10 14 17 18 15 13 12 11 11 13 14 14 14 15 16 16 15 16 18 18 17 16 15 13 13 14 14 14 14 15 15 14 14 13 12 11 10 11 11 11 11 11 11 11 11
23 22 22 21 19 18 18 18 18 19 19 19 19 19 19 19 18 18 18 18 19 19 19 20 21 20 20 21 22 22 23 23 21 19 19 20 19 17 14 13 15 18 19 18 16 14 12 11 12 14 16 15 16 17 19 20 19 18 18 19 19 17 17 16 16 16 15 15 15 15 14 14 14 13 13 13 13 14 15 15 14 12 11 11 10
23 22 23 23 22 20 18 18 18 19 19 19 19 20 19 18 18 18 17 17 17 18 20 23 23 20 18 18 20 21 22 22 20 18 18 19 19 19 17 16 16 17 17 17 16 14 13 13 13 16 17 17 18 19 20 20 20 19 17 17 17 17 17 17 17 16 16 16 16 15 14 14 13 12 13 14 14 14 14 15 15 14 13 13 12
22 21 22 24 24 23 21 18 17 17 17 17 18 18 18 17 17 17 17 17 17 17 19 22 24 22 20 21 21 21 23 23 20 18 19 20 22 23 21 17 15 14 14 16 16 15 14 15 16 17 18 18 18 19 19 19 18 17 15 15 15 15 15 15 15 16 16 17 17 16 15 14 13 11 11 12 12 12 12 13 14 14 13 13 13
20 20 22 23 24 23 21 19 18 17 16 17 18 17 16 16 16 16 16 17 17 17 18 20 20 20 21 23 23 23 25 25 23 23 24 24 24 24 21 19 17 15 14 16 17 16 16 17 18 18 18 18 18 18 18 18 17 15 14 14 14 13 13 14 14 15 15 16 16 15 15 14 13 12 11 11 11 11 11 11 12 12 12 12 12
19 20 23 24 24 23 21 18 17 16 16 17 18 17 15 15 15 15 16 17 17 17 17 18 18 18 20 23 24 24 25 24 22 22 23 23 23 22 20 19 19 17 17 18 19 18 18 19 19 19 19 18 18 18 17 17 16 15 14 13 14 14 14 14 15 15 15 15 15 14 13 13 13 12 12 13 12 11 11 11 11 11 12 13 12
20 21 24 25 23 22 21 19 17 16 16 17 18 16 15 14 14 15 16 16 16 16 15 16 17 18 19 21 22 23 22 20 18 18 19 20 20 20 19 18 18 18 18 19 19 19 18 18 18 19 19 19 19 18 17 16 15 14 14 13 14 15 15 15 15 15 14 14 13 13 13 13 12 12 13 14 13 13 13 13 12 12 12 12 12
20 22 24 25 24 22 21 20 18 17 18 18 18 16 15 14 14 15 15 15 15 15 15 16 17 19 19 19 19 19 18 17 16 17 17 17 18 18 18 17 16 17 18 18 18 17 17 16 16 17 18 18 18 18 17 16 15 14 14 14 14 14 15 15 15 14 14 13 13 13 13 12 12 12 13 13 13 13 13 13 13 13 13 12 12
20 22 24 25 24 22 21 20 19 19 19 19 18 17 16 15 15 15 15 14 14 14 16 17 18 19 20 19 18 17 16 16 15 15 16 16 17 17 17 17 16 16 16 17 16 16 16 15 15 15 15 16 17 17 17 17 16 14 14 14 15 15 15 15 15 14 13 13 13 13 12 12 12 12 12 12 12 13 13 13 12 13 13 12 12
20 22 24 25 24 22 21 21 20 20 20 19 18 18 18 16 16 16 16 15 14 14 15 17 19 20 20 19 18 17 16 16 15 15 16 17 17 17 17 17 16 16 15 15 15 15 15 15 15 14 13 14 14 15 15 16 15 14 14 14 14 15 15 15 15 14 13 13 12 12 12 12 11 11 12 12 12 12 13 12 12 12 12 12 12
21 23 24 25 24 23 22 21 20 20 20 19 19 19 19 17 16 16 16 16 16 15 15 17 19 20 20 19 18 17 17 17 16 16 16 17 17 17 17 17 16 16 16 15 15 15 14 15 15 15 13 12 11 12 13 13 13 13 14 14 14 14 14 15 15 14 13 12 11 11 11 11 11 11 11 11 11 11 11 11 11 11 11 12 12
21 23 25 25 25 24 23 22 21 20 20 20 20 20 19 17 16 16 16 16 16 15 15 17 18 18 18 18 17 17 17 17 16 16 16 17 17 17 17 16 16 16 16 15 15 15 14 14 15 15 14 13 11 10 11 12 12 12 13 13 13 13 13 14 14 13 12 11 10 9 9 9 9 9 9 9 9 10 10 10 10 10 10 11 11
22 24 25 25 25 24 23 23 22 21 20 20 20 21 20 19 18 17 16 15 15 14 15 16 17 17 17 17 17 16 16 16 16 16 16 16 16 16 16 16 16 16 16 15 15 15 14 14 13 14 14 13 12 10 10 11 11 12 12 11 11 11 12 13 13 13 13 12 10 8 7 7 7 7 7 7 8 9 10 10 10 10 10 10 10
23 24 25 25 24 23 23 23 22 21 20 19 20 20 21 20 19 18 17 17 15 15 16 16 17 17 17 17 16 16 15 15 15 15 16 16 16 16 15 15 15 15 15 15 15 14 14 13 12 12 12 12 12 11 10 11 11 11 11 11 11 11 12 13 14 14 13 12 10 9 7 6 6 6 6 7 8 9 9 10 10 10 10 9 9
24 25 25 24 22 21 22 22 21 20 20 21 21 20 20 20 20 19 18 18 17 16 17 17 17 17 17 17 16 16 15 14 14 15 16 16 16 15 15 15 15 15 15 15 15 14 14 13 11 10 10 11 12 11 11 12 12 12 11 10 11 12 13 13 13 13 12 11 10 10 8 7 6 6 6 7 8 8 9 9 9 9 10 9 9
25 25 25 23 21 21 21 20 20 20 21 21 21 21 20 19 20 19 19 19 19 18 18 17 17 17 18 17 17 17 16 15 14 15 15 16 16 16 15 15 15 14 14 15 14 14 14 13 11 10 9 9 11 11 11 11 12 12 11 11 12 13 15 14 12 11 11 11 11 10 8 7 6 6 6 7 8 8 8 9 9 9 9 9 9
26 26 24 22 21 21 20 20 19 20 20 20 20 20 20 19 20 20 20 20 20 19 19 18 18 18 18 17 17 17 17 15 15 15 16 17 16 16 15 15 15 15 14 14 14 14 13 12 11 10 8 8 8 9 10 11 12 12 12 13 14 15 15 12 10 9 10 11 11 9 8 6 6 6 6 7 7 8 8 8 8 8 8 8 8
26 25 23 22 21 20 20 20 19 19 20 20 19 19 19 20 20 20 20 20 20 20 20 19 19 19 18 18 18 18 17 16 16 16 17 17 17 16 16 15 15 15 15 14 13 13 13 12 12 11 9 8 7 7 8 11 12 12 11 12 14 16 15 11 8 9 10 10 9 9 7 6 6 6 7 7 7 7 8 8 7 7 7 7 7
Wind_Direction
353 349 344 341 338 335 332 331 331 329 327 324 321 322 325 326 327 328 333 336 334 332 330 328 321 312 305 299 296 296 295 295 295 291 285 280 275 272 270 267 263 261 262 261 260 258 256 257 258 259 259 258 258 257 256 255 253 251 249 248 247 246 245 243 248 269 270 267 266 268 269 269 269 269 270 272 271 270 270 271 273 275 277 282 284
355 352 350 349 346 342 336 331 328 325 324 327 328 331 336 337 336 336 338 338 336 334 333 331 327 321 313 307 306 306 303 305 307 302 295 290 284 280 275 270 267 265 263 263 263 261 259 259 260 261 261 260 260 259 258 257 254 252 251 248 248 248 244 244 247 258 271 270 266 266 267 263 262 264 266 269 271 271 270 270 270 269 269 275 283
353 353 352 353 354 353 349 343 338 334 331 329 326 327 331 332 331 329 329 328 326 326 325 323 321 319 316 313 311 308 306 308 309 306 302 298 292 288 283 278 274 271 268 267 267 266 264 262 263 264 263 263 263 262 260 260 257 255 254 251 249 251 248 244 247 252 266 272 269 267 267 262 259 261 264 266 270 270 268 268 269 267 264 268 280
351 352 352 352 354 355 355 353 350 349 346 341 334 325 315 314 316 317 318 319 318 317 316 315 315 313 311 310 308 307 308 309 309 309 307 304 299 295 291 286 282 279 276 275 274 272 269 267 267 267 266 265 265 264 262 261 260 257 257 256 252 254 255 249 247 250 257 269 271 268 266 263 261 262 262 262 264 264 264 266 266 264 261 262 274
351 351 350 350 350 349 350 350 349 349 348 346 343 338 328 317 312 312 311 312 313 313 313 312 311 309 308 308 306 307 309 311 311 312 311 309 304 300 298 294 289 286 284 281 279 277 274 272 272 272 270 267 267 267 264 263 263 260 260 260 258 257 258 254 249 249 252 260 269 271 268 263 262 263 260 256 257 260 260 261 261 260 260 260 267
350 351 349 348 346 345 345 345 345 344 342 341 340 338 335 327 319 314 309 308 309 309 310 311 311 309 308 307 306 305 305 307 309 311 311 310 307 304 300 297 294 292 290 287 285 282 278 276 275 274 271 268 268 269 268 266 266 265 263 262 261 260 259 258 254 251 251 255 264 269 269 263 260 261 259 254 252 253 254 256 256 254 254 257 262
348 348 347 347 345 343 342 342 341 340 338 337 335 333 333 330 326 320 311 307 306 304 304 304 306 307 307 306 305 303 302 302 303 305 307 309 308 305 302 299 297 295 292 291 289 286 283 279 278 276 272 269 268 269 269 269 268 268 267 265 265 263 260 260 258 253 252 257 261 265 268 267 262 261 262 257 250 248 247 249 255 254 251 254 259
345 345 345 345 344 342 341 339 338 337 335 334 332 331 331 330 329 327 320 312 307 305 303 301 301 302 302 303 303 303 303 303 303 302 302 305 305 303 302 300 298 296 294 292 290 288 286 283 280 278 274 271 271 270 269 269 269 269 269 268 267 265 262 262 262 258 256 259 261 263 266 267 264 260 258 249 239 242 242 239 247 253 250 252 258
343 342 342 342 342 341 340 338 336 336 335 333 331 331 332 332 332 331 328 323 317 311 306 303 302 300 298 298 299 300 304 306 306 306 304 304 302 300 299 298 297 295 294 293 291 289 288 286 284 282 280 277 275 273 271 269 268 268 269 269 268 266 265 264 262 260 258 257 260 262 261 261 260 257 248 235 231 241 244 237 241 251 252 253 258
341 340 340 339 338 339 339 338 337 336 336 335 333 332 333 333 334 334 333 331 327 321 315 310 307 305 303 301 299 301 307 308 308 308 307 305 302 299 297 296 295 294 293 292 292 291 290 290 289 288 286 284 281 279 277 274 271 269 269 269 268 267 267 266 263 260 257 255 256 258 260 262 261 256 248 244 242 242 242 234 234 247 250 250 258
337 336 336 336 337 338 338 337 337 337 337 336 335 334 333 334 335 335 335 334 331 329 325 321 317 314 310 307 304 307 313 315 314 314 312 308 303 300 297 295 294 293 291 290 291 292 293 292 292 292 290 288 286 285 283 282 280 276 274 273 271 268 266 265 266 265 262 259 256 256 253 255 260 259 254 252 247 240 239 235 232 239 239 235 258
331 331 333 334 336 338 337 335 336 336 336 336 336 335 335 335 337 338 337 335 333 331 330 328 325 322 317 311 307 311 318 322 323 323 321 315 308 302 297 295 294 292 290 289 289 291 293 293 293 293 291 289 288 287 286 285 283 282 280 278 276 272 268 265 264 264 264 265 265 265 262 259 262 262 258 255 253 246 242 238 232 232 232 230 240
327 327 329 332 335 336 336 335 333 333 334 334 334 335 335 335 338 338 337 334 332 330 330 329 328 326 323 317 311 313 320 325 327 329 326 319 313 305 298 295 294 292 291 291 291 291 292 293 294 294 293 293 291 289 289 289 289 288 285 283 280 277 274 270 266 263 261 261 262 264 263 262 264 266 266 263 256 248 242 235 230 229 228 228 234
325 325 327 330 332 333 334 334 332 331 331 331 330 331 331 331 334 336 335 332 330 328 328 327 327 326 324 321 315 316 323 326 327 328 323 317 314 309 302 297 294 293 292 292 293 293 293 292 292 294 295 295 294 295 296 295 295 295 291 287 283 281 280 276 271 267 262 258 257 259 261 262 262 264 268 269 260 251 246 239 234 232 232 238 243
322 323 324 327 330 332 331 331 331 329 329 329 327 326 326 326 329 331 331 329 326 325 325 324 323 322 322 321 317 318 325 328 327 326 320 314 313 312 307 303 299 296 295 296 295 295 295 294 292 293 294 295 295 298 299 298 298 298 294 291 288 286 283 277 272 271 267 261 257 258 261 263 263 264 266 267 265 262 261 257 252 248 245 247 247
321 323 322 325 330 332 330 329 328 327 327 326 323 321 321 322 325 327 327 324 323 323 323 321 319 318 319 320 318 320 327 330 328 326 321 314 312 312 310 307 303 300 299 300 300 299 299 299 298 296 296 297 299 300 300 299 298 295 293 292 291 290 287 282 279 277 274 270 265 263 264 265 266 266 265 264 264 264 265 267 265 260 254 248 246
320 321 321 322 327 330 330 327 325 324 324 323 320 317 316 319 323 325 323 322 321 321 321 319 317 316 318 319 320 323 331 338 337 332 328 323 319 318 315 310 307 305 305 307 309 308 308 308 307 304 301 301 303 304 302 299 293 290 289 290 291 290 288 288 291 289 281 276 274 273 272 271 270 269 266 264 264 262 262 261 259 256 248 235 246
320 321 320 320 323 327 328 325 321 320 319 317 316 314 313 316 321 322 320 318 317 317 318 318 317 318 320 321 324 326 332 342 345 340 338 338 335 332 329 320 314 313 312 313 313 313 312 313 314 310 306 306 308 309 306 299 291 285 283 286 286 285 287 292 298 298 291 285 283 281 279 277 276 274 269 266 263 260 255 250 250 249 234 221 244
320 320 319 317 319 322 323 321 318 316 313 310 311 312 311 312 316 318 316 314 314 313 315 317 317 320 322 324 330 335 338 346 351 348 346 347 345 342 340 331 321 319 318 317 317 316 315 317 319 315 310 308 307 307 306 302 296 291 289 288 284 281 287 295 299 298 296 294 290 286 284 282 280 278 275 271 267 263 257 253 251 247 233 228 236
317 320 321 319 318 319 321 319 313 310 307 306 309 311 310 308 310 312 312 312 313 312 312 313 315 320 325 327 333 340 344 350 355 354 350 350 347 344 343 336 326 322 321 320 320 319 320 322 323 320 315 310 308 307 305 300 297 294 290 287 282 282 289 294 295 294 293 291 289 286 285 284 282 280 277 273 271 267 262 258 253 246 238 234 234
319 324 324 324 323 321 320 315 308 306 308 308 308 310 310 307 305 306 307 306 307 308 309 309 311 316 322 325 329 338 345 350 353 354 351 348 347 344 342 337 329 322 319 319 319 318 318 320 322 323 320 317 314 312 309 304 299 293 287 283 281 283 287 289 289 290 289 287 286 285 283 282 280 278 275 271 268 264 261 260 257 250 243 238 238
325 325 323 326 328 325 321 313 306 307 310 311 310 310 310 309 306 304 302 301 301 302 304 306 307 309 313 318 324 334 342 347 348 349 347 345 343 341 337 333 329 323 319 318 316 314 314 315 317 320 320 316 312 309 306 303 299 294 289 288 288 288 288 287 287 288 287 285 284 283 280 279 277 276 274 271 268 265 263 264 261 255 249 245 243
327 326 325 327 326 323 321 314 308 308 310 312 312 309 308 311 310 307 303 301 300 300 301 305 306 305 309 317 324 331 338 343 344 343 343 342 338 336 333 329 327 324 319 315 313 314 314 314 315 316 317 314 310 307 304 303 304 302 298 296 298 298 295 291 287 285 284 283 281 277 276 276 275 274 273 270 270 269 267 266 262 255 252 249 246
326 327 330 328 321 319 319 312 310 312 313 314 313 309 309 311 311 310 309 304 301 300 301 304 304 305 311 318 324 330 335 339 340 339 339 339 336 334 331 328 325 322 317 312 312 314 314 312 312 314 316 316 314 311 311 312 314 313 310 309 309 308 304 297 291 287 284 281 278 275 275 276 274 272 273 273 273 272 268 266 262 256 253 251 249
326 328 330 328 325 325 319 311 311 314 315 317 316 312 312 313 311 310 310 306 302 301 302 303 303 307 314 319 323 328 331 333 335 337 338 337 335 333 331 327 325 322 317 313 312 312 311 311 313 315 319 322 323 322 324 325 325 322 321 320 318 315 311 305 299 295 289 284 283 281 280 282 281 280 280 277 274 271 266 263 261 258 256 253 249
326 324 325 325 329 328 319 312 315 316 315 317 316 313 314 313 311 310 310 309 308 309 309 308 309 313 319 322 325 326 329 332 333 336 338 336 334 333 331 328 327 326 321 315 313 314 316 317 318 319 322 326 328 330 331 332 333 332 330 328 325 321 318 313 307 302 296 292 293 291 289 291 292 291 289 283 275 271 266 260 255 251 246 238 229
324 319 322 324 325 324 318 314 316 316 316 317 316 315 315 313 311 311 312 315 320 322 318 314 317 323 325 326 329 329 331 336 336 337 338 337 334 333 331 330 329 327 322 318 318 320 321 320 320 322 325 329 333 336 337 337 338 338 337 335 333 329 325 321 314 306 300 297 297 296 296 298 296 293 290 283 274 269 263 251 239 229 219 205 183
321 320 325 323 318 317 317 316 316 316 317 317 315 315 315 314 311 310 310 313 319 323 321 320 327 334 332 330 332 332 334 338 339 338 337 335 333 331 329 328 326 323 320 318 318 318 318 320 326 332 335 338 340 342 345 345 343 342 341 340 341 339 335 332 327 319 313 310 307 305 305 304 301 296 290 281 271 263 251 232 214 196 180 167 148
320 322 327 322 315 317 318 317 316 316 316 317 315 313 312 311 307 308 311 315 316 320 326 336 343 341 337 336 337 335 334 334 336 336 335 333 331 329 326 324 323 320 318 316 314 315 320 330 339 343 344 345 345 344 346 348 346 345 345 345 347 349 347 344 338 331 327 323 317 315 314 312 308 303 293 283 274 255 229 204 184 170 155 138 119
322 322 324 320 318 320 319 318 319 319 318 318 317 316 316 314 307 305 310 316 318 320 333 349 352 345 341 340 339 335 331 332 335 337 337 335 333 330 327 327 327 325 321 317 316 328 345 350 350 350 349 347 346 343 345 347 345 345 345 346 349 354 356 353 348 341 337 336 332 330 331 329 327 323 315 310 336 112 169 163 154 146 134 120 102
323 320 321 320 320 321 320 320 320 319 320 320 318 317 319 320 319 314 311 315 319 323 334 350 352 349 344 340 340 338 334 335 339 341 341 340 339 337 335 336 338 334 329 331 352 10 8 358 353 354 352 348 346 343 342 344 345 344 344 346 351 358 359 357 354 350 349 353 356 356 356 356 357 359 1 18 58 80 95 106 111 105 98 99 94
323 320 321 320 320 320 319 319 319 318 320 321 320 319 319 320 323 324 324 322 320 321 332 343 348 350 348 344 344 343 340 339 341 344 347 348 345 341 340 343 346 343 341 358 25 25 12 2 357 355 351 348 345 341 341 345 346 345 345 345 349 357 1 359 357 359 4 10 14 16 16 16 18 25 37 56 75 86 89 89 90 90 90 92 91
326 323 322 321 321 321 319 319 320 319 319 319 320 321 322 321 320 322 324 326 323 321 332 341 345 348 349 347 347 346 344 344 345 347 351 352 348 345 344 348 357 1 6 20 29 22 11 7 2 356 354 350 344 341 342 345 346 348 352 351 347 353 1 4 5 12 19 22 24 27 27 26 26 29 34 41 57 74 83 88 94 98 98 95 93
329 324 322 320 318 318 317 317 317 318 318 319 320 321 321 320 318 317 320 324 326 326 332 340 344 347 348 348 349 349 348 349 350 352 355 355 351 348 347 352 9 19 26 31 29 16 8 7 3 360 359 354 349 348 348 349 349 350 354 357 355 359 9 17 21 26 29 31 33 34 34 36 39 41 39 37 40 50 57 65 79 91 94 94 93
331 328 327 325 321 317 314 315 316 317 318 319 321 322 320 318 318 318 319 322 323 323 327 335 342 345 348 350 351 351 351 352 352 356 2 2 356 354 359 7 13 16 20 22 17 7 2 358 355 1 4 360 358 1 1 1 1 358 356 358 359 4 14 24 31 34 35 38 39 38 40 44 49 55 57 52 50 52 54 59 66 73 80 86 87
331 329 328 330 329 322 315 313 314 316 317 318 320 321 320 319 319 320 320 321 320 319 322 329 335 340 346 351 352 351 352 353 353 357 6 9 8 13 21 23 15 9 7 6 1 357 356 353 351 0 6 3 3 7 7 6 7 6 4 4 4 7 12 18 25 31 36 40 39 38 43 46 49 58 68 67 63 61 62 67 71 74 78 85 86
330 327 327 330 331 327 322 317 314 315 317 319 321 321 320 319 319 321 321 321 321 320 322 327 334 340 345 351 354 352 350 352 357 3 9 14 18 24 28 25 15 7 3 360 355 350 350 352 354 359 2 1 3 7 6 4 6 10 13 15 17 18 18 19 23 28 33 37 37 37 40 43 43 53 70 75 74 72 73 78 81 81 84 90 93
327 325 326 330 332 330 326 322 320 320 321 323 325 324 321 319 320 322 323 323 322 323 326 331 337 341 342 346 350 350 349 353 1 6 8 12 16 19 19 17 14 9 2 359 359 353 349 350 352 355 357 357 360 2 3 4 7 10 15 21 26 27 26 26 29 31 34 36 37 38 39 40 41 47 61 71 75 75 77 83 88 90 90 92 92
326 324 328 333 335 333 328 323 321 322 323 325 328 327 322 320 322 324 324 324 324 325 329 333 337 340 341 343 347 349 351 356 1 1 2 6 10 12 12 11 9 6 0 360 1 359 354 353 353 355 356 357 359 2 6 9 11 13 18 27 33 34 34 33 34 35 37 38 39 40 43 46 47 51 57 61 62 66 71 76 82 90 94 94 96
326 324 328 333 334 332 329 325 321 321 323 325 328 328 323 321 323 323 322 322 321 324 328 332 334 336 339 343 345 347 350 353 355 354 356 359 4 8 10 8 5 2 0 0 1 359 357 357 356 357 358 358 1 5 9 14 18 20 22 29 34 35 35 36 36 38 40 40 41 43 46 50 56 61 64 64 64 67 72 74 75 82 89 92 96
326 323 326 330 332 330 328 326 323 323 324 325 326 326 323 321 322 324 322 320 320 323 326 329 330 333 338 342 345 347 349 350 350 350 354 356 358 3 6 6 2 360 358 359 0 359 358 358 359 360 0 0 2 7 11 17 23 26 27 31 34 33 33 33 34 36 39 41 44 46 46 49 56 62 66 70 74 77 80 81 81 85 87 88 91
325 322 324 328 329 327 325 324 322 323 325 325 326 327 325 322 323 325 325 322 320 322 325 326 329 334 340 346 349 351 354 354 351 349 351 353 354 358 2 3 3 1 358 359 1 360 358 0 2 2 3 4 6 10 13 16 21 25 29 33 35 35 34 33 32 34 37 40 43 46 49 52 57 61 65 71 77 80 81 82 85 88 88 89 90
322 320 322 325 326 324 321 321 320 321 323 324 323 325 327 326 325 326 328 326 323 322 324 327 330 334 341 348 354 356 357 357 355 352 351 352 352 355 357 360 2 3 1 0 2 1 0 2 4 5 7 9 11 16 19 19 21 26 31 35 38 39 38 35 32 32 34 38 41 45 48 52 56 61 65 69 75 79 81 81 82 84 87 89 90
319 320 323 325 325 323 321 321 320 319 320 321 321 323 327 327 325 326 329 329 327 326 326 328 331 336 341 348 353 354 354 356 356 354 354 355 355 356 357 359 1 3 3 3 3 3 3 4 4 5 8 12 17 23 27 27 26 28 30 33 36 39 40 38 35 31 29 33 38 42 47 51 56 60 64 69 75 79 80 80 81 84 86 87 87
318 320 323 324 324 322 321 322 321 319 319 321 322 323 325 326 325 326 328 327 327 326 326 329 334 338 341 345 348 349 349 352 353 353 355 358 359 359 360 360 0 2 2 2 2 4 6 6 4 5 9 13 19 24 29 31 31 31 31 31 33 36 38 35 30 25 23 25 30 36 41 48 53 57 62 70 76 79 80 82 85 86 85 82 81
317 319 321 322 321 319 318 319 320 319 320 320 320 321 323 324 324 324 325 326 326 324 324 329 335 338 340 343 345 345 345 347 348 350 353 356 358 359 359 359 0 2 3 2 2 4 6 6 7 10 13 16 19 21 24 26 28 30 31 31 32 32 30 24 18 17 17 18 19 23 31 39 47 53 60 70 78 81 82 84 86 85 82 79 77
317 318 319 319 318 316 316 318 318 318 318 318 318 319 320 321 321 322 322 325 325 324 326 330 333 335 338 340 342 343 344 343 343 346 348 350 353 356 356 357 358 359 1 2 3 4 5 6 9 14 19 19 19 20 21 22 23 27 31 32 26 20 15 10 8 10 14 14 14 15 18 25 38 51 61 70 77 80 80 80 81 81 79 78 76
317 317 318 318 316 314 315 317 317 316 316 318 319 318 317 318 319 320 321 323 324 325 327 330 331 332 335 336 337 340 341 340 341 343 344 346 348 349 351 354 356 356 358 1 3 4 6 7 7 11 17 19 19 19 21 23 26 29 32 27 16 6 1 360 3 8 11 11 11 12 14 21 34 47 59 67 72 75 76 77 77 76 75 74 71
316 318 318 317 315 313 313 315 315 315 316 317 317 317 317 317 318 319 320 322 323 324 326 328 329 331 332 333 334 336 337 339 340 340 341 343 345 345 346 348 350 351 354 357 359 1 5 6 4 5 9 13 16 17 17 18 22 24 20 8 356 352 352 354 359 7 8 6 6 10 14 23 35 45 57 68 74 74 75 75 74 72 72 71 65
315 317 318 316 313 312 314 315 314 315 317 317 316 316 317 317 317 319 320 321 321 323 324 326 327 329 330 330 331 332 334 336 336 335 336 340 342 342 344 345 346 347 350 353 354 358 0 2 3 1 357 358 6 12 15 15 14 12 8 358 349 348 351 356 2 8 7 4 7 14 20 27 38 51 63 70 71 71 70 72 71 69 66 63 57
314 317 317 315 314 313 314 315 315 315 317 317 315 315 315 315 316 318 319 319 319 320 322 324 325 326 327 327 328 329 330 331 330 330 333 336 338 339 342 343 343 345 346 347 349 353 355 358 1 359 353 349 350 354 4 10 6 1 359 357 350 347 351 360 8 10 7 4 7 14 22 29 41 56 65 65 65 68 70 68 65 61 57 56 54